Location: Potomac
(46.8816°N, 113.5795°W)
Time: 00:08:21
(UTC+00:00)

KKS-1 - Visible Passes

Search period start: 29 June 2022 00:00
Search period end: 09 July 2022 00:00
Orbit: 636 x 647 km, 98.2° (Epoch: 28 June)

Date Brightness Start Highest point End Pass type
(mag) Time Alt. Az. Time Alt. Az. Time Alt. Az.
29 Jun ? 04:42:50 10° NE 04:46:18 22° E 04:48:54 14° SE visible
29 Jun ? 06:18:45 10° N 06:23:00 43° WNW 06:26:30 14° SW visible
30 Jun ? 05:06:18 10° NNE 05:10:28 36° E 05:13:08 19° SSE visible
30 Jun ? 06:43:05 10° N 06:46:50 27° WNW 06:50:33 10° WSW visible
01 Jul ? 05:30:05 10° NNE 05:34:32 63° ESE 05:37:23 22° S visible
01 Jul ? 07:07:43 10° NNW 07:10:35 17° WNW 07:13:26 10° W visible
02 Jul ? 04:19:33 10° ENE 04:21:29 12° E 04:23:23 10° ESE visible
02 Jul ? 05:54:03 10° N 05:58:32 76° WNW 06:01:37 20° SSW visible
02 Jul ? 07:33:19 10° NW 07:34:15 11° NW 07:35:11 10° WNW visible
03 Jul ? 04:42:18 10° NE 04:45:44 21° E 04:48:14 14° SE visible
03 Jul ? 06:18:11 10° N 06:22:27 44° WNW 06:25:51 15° SW visible
04 Jul ? 05:05:46 10° NNE 05:09:54 35° E 05:12:28 19° SSE visible
04 Jul ? 06:42:31 10° N 06:46:17 27° WNW 06:50:02 10° WSW visible
05 Jul ? 05:29:31 10° NNE 05:33:58 61° E 05:36:43 22° S visible
05 Jul ? 07:07:07 10° NNW 07:10:02 17° WNW 07:12:55 10° W visible
06 Jul ? 04:19:07 10° ENE 04:20:54 12° E 04:22:41 10° ESE visible
06 Jul ? 05:53:29 10° N 05:57:59 78° WNW 06:00:56 21° SSW visible
06 Jul ? 07:32:37 10° NW 07:33:42 11° NW 07:34:47 10° WNW visible
07 Jul ? 04:41:47 10° NE 04:45:09 21° E 04:47:32 14° SE visible
07 Jul ? 06:17:36 10° N 06:21:53 45° WNW 06:25:10 16° SW visible
08 Jul ? 05:05:13 10° NNE 05:09:19 34° E 05:11:46 20° SSE visible
08 Jul ? 06:41:56 10° N 06:45:44 28° WNW 06:49:23 11° WSW visible
